Location: Lombard
(41.8800°N, 88.0080°W)
Time: 03:36:52
(UTC-05:00)

Vanguard 2 Rocket - Pass Details

Date: 01 March 2024
Orbit: 555 x 3307 km, 32.9° (Epoch: 12 April)

Event Time Altitude Azimuth Distance (km) Brightness Sun altitude
Rises 19:52:52 0° 271° (W) 5,917 12.3 -24.8°
Reaches altitude 10° 19:58:08 10° 255° (WSW) 5,346 11.6 -25.8°
Maximum altitude 20:08:17 19° 218° (SW) 5,172 10.9 -27.6°
Drops below altitude 10° 20:20:07 10° 181° (S) 6,248 11.0 -29.7°
Sets 20:27:19 0° 166° (SSE) 7,226 11.2 -30.9°
